Regional Weather Roundup
Issued by NWS Columbia, SC

Home | Current Version | Previous Version | Text Only | Print | Product List | Glossary On
Versions: 1 2 3 4 5 6 7 8 9 10 11 12 13 14 15 16 17 18 19 20 21 22 23 24 25 26 27 28 29 30 31 32 33 34 35 36 37 38 39 40 41 42 43 44 45 46 47 48 49 50
000
ASUS42 KCAE 260210
RWRCAE
REGIONAL WEATHER ROUNDUP
NATIONAL WEATHER SERVICE COLUMBIA SC
1000 PM EDT WED APR 25 2018

NOTE: "FAIR" INDICATES FEW OR NO CLOUDS BELOW 12,000 FEET WITH NO
SIGNIFICANT WEATHER AND/OR OBSTRUCTIONS TO VISIBILITY.

NOT ALL STATIONS ARE QUALITY CONTROLLED BY THE NATIONAL
WEATHER SERVICE. USE DATA WITH CAUTION...ESPECIALLY
DEWPOINT OBSERVATIONS.

SCZ001>056-GAZ040-063>065-077-260300-
...UPSTATE SOUTH CAROLINA...

CITY           SKY/WX    TMP DP  RH WIND       PRES   REMARKS
ANDERSON       FAIR      64  50  60 CALM      29.86R
LIBERTY        CLOUDY    62  53  71 CALM      29.86S
SPARTANBURG    MOCLDY    63  46  55 N5        29.86R
CLEMSON        FAIR      61  49  64 NW6       29.87R
GREENVILLE     CLOUDY    64  49  57 N6        29.87R
GREENWOOD      MOCLDY    64  53  67 N5        29.87R
GREER          CLOUDY    62  50  64 N3        29.87R
ROCK HILL      MOCLDY    63  51  65 N6        29.86R
CHESTER        MOCLDY    63  46  55 NW3       29.86R
LAURENS        MOCLDY    63  50  63 N3        29.86R


...CENTRAL SOUTH CAROLINA...

CITY           SKY/WX    TMP DP  RH WIND       PRES   REMARKS
COLUMBIA APT   FAIR      63  58  83 W5        29.83R
COLUMBIA OWENS MOCLDY    65  57  75 CALM      29.84R
MCENTIRE ANGB  MOCLDY    62  58  87 CALM      29.83R
ORANGEBURG     FAIR      66  56  70 W5        29.84R
SUMTER SHAW    FAIR      62  56  81 S3        29.81R
AIKEN          FAIR      61  54  77 SW6       29.89R
MANNING        FAIR      57  54  88 CALM      29.83R
CAMDEN         FAIR      61  57  88 CALM      29.84R
LANCASTER      MOCLDY    64  54  68 CALM      29.85R
WINNSBORO      MOCLDY    63  54  72 N3        29.84R


...EASTERN AND COASTAL SOUTH CAROLINA...

CITY           SKY/WX    TMP DP  RH WIND       PRES   REMARKS
MYRTLE BEACH   MOCLDY    66  58  75 CALM      29.84R
N MYRTLE BCH   FAIR      63  60  90 CALM      29.82R
CONWAY         FAIR      61  59  94 CALM      29.83R
MARION         CLOUDY    63  59  88 CALM      29.82S
HARTSVILLE     FAIR      59  55  88 CALM      29.83R
FLORENCE       FAIR      64  58  80 CALM      29.82R
DARLINGTON     FAIR      62  59  90 CALM      29.83R
CHARLESTON APT FAIR      68  56  65 SW6       29.85R
MOUNT PLEASANT FAIR      64  61  88 CALM      29.85R
WALTERBORO     FAIR      64  54  68 W3        29.86R
BEAUFORT       FAIR      66  56  70 W9        29.87


...EASTERN GEORGIA...

CITY           SKY/WX    TMP DP  RH WIND       PRES   REMARKS
AUGUSTA BUSH F FAIR      65  55  70 W7        29.85R
AUGUSTA DANIEL FAIR      67  54  63 W3        29.87R
THOMSON        FAIR      61  54  77 NW5       29.92S
WASHINGTON     FAIR      61  52  72 W6        29.87S
CLAXTON        FAIR      63  58  83 CALM      29.89R
SYLVANIA       FAIR      65  58  78 CALM      29.89R
STATESBORO     FAIR      65  52  62 W3        29.89R
SAVANNAH       FAIR      65  55  70 W7        29.89R


...SOUTHERN NORTH CAROLINA...

CITY           SKY/WX    TMP DP  RH WIND       PRES   REMARKS
CHARLOTTE      FAIR      63  51  65 NW5       29.86R
MONROE         FAIR      62  52  69 NW3       29.84R
WADESBORO      FAIR      57  54  89 CALM      29.83R
ROCKINGHAM     FAIR      62  58  86 NW5       29.83R
RUTHERFORDTON  FAIR      58  51  76 CALM      29.89S
ASHEVILLE      MOCLDY    56  49  77 N8        29.92S

$$



USA.gov is the U.S. government's official web portal to all federal, state and local government web resources and services.